Location: Oakhurst
(33.6448°N, 111.9543°W)
Time: 09:11:00
(UTC+00:00)

Envisat - Pass Details

Date: 20 May 2021
Orbit: 764 x 766 km, 98.1° (Epoch: 21 June)

Event Time Altitude Azimuth Distance (km) Brightness Sun altitude
Rises 11:43:24 0° 33° (NNE) 3,233 7.6 -8.2°
Reaches altitude 10° 11:46:34 10° 54° (NE) 2,302 7.2 -7.7°
Maximum altitude 11:49:44 17° 93° (E) 1,881 5.9 -7.1°
Drops below altitude 10° 11:52:54 10° 132° (SE) 2,293 5.7 -6.5°
Sets 11:56:01 0° 153° (SSE) 3,213 6.2 -6.0°
